Overview Statistics Trail Chart Weather Telemetry Raw packets
 

This is the latest recevied weather packets stored in our database for station/object 4S6DRJ-13. If no packets are shown the sender has not sent any weather packets the latest 10 day(s).

<< 28 29 30 31 32 33 34 >>
Time Temp. Humidity Pressure Rain* Wind** Luminosity Snow
1788402956 27.78° C 85% 1010.2 hPa 0 mm 0 m/s 191 W/m² -
1788402895 27.78° C 85% 1010.3 hPa 0 mm 0.45 m/s, 232° 187 W/m² -
1788402835 27.78° C 85% 1010.4 hPa 0 mm 0.89 m/s, 227° 186 W/m² -
1788402775 27.78° C 85% 1010.3 hPa 0 mm 0 m/s 187 W/m² -
1788402713 27.78° C 85% 1010.3 hPa 0 mm 1.34 m/s, 198° 187 W/m² -
1788402652 27.78° C 85% 1010.3 hPa 0 mm 0.89 m/s, 239° 185 W/m² -
1788402591 27.78° C 85% 1010.4 hPa 0 mm 0 m/s 183 W/m² -
1788402530 27.78° C 85% 1010.3 hPa 0 mm 0 m/s 180 W/m² -
1788402469 27.78° C 85% 1010.1 hPa 0 mm 0.45 m/s, 242° 176 W/m² -
1788402408 27.78° C 84% 1010.2 hPa 0 mm 0.89 m/s, 278° 170 W/m² -
1788402347 27.78° C 84% 1010.2 hPa 0 mm 0.45 m/s, 232° 164 W/m² -
1788402286 27.78° C 84% 1010.3 hPa 0 mm 0.45 m/s, 233° 163 W/m² -
1788402225 27.78° C 84% 1010.3 hPa 0 mm 0 m/s 168 W/m² -
1788402164 27.78° C 84% 1010.1 hPa 0 mm 0.89 m/s, 249° 185 W/m² -
1788402103 27.78° C 84% 1010.2 hPa 0 mm 0 m/s 201 W/m² -
1788402042 27.78° C 84% 1010.2 hPa 0 mm 0 m/s 200 W/m² -
1788401981 27.78° C 84% 1010 hPa 0 mm 0.89 m/s, 216° 189 W/m² -
1788401919 27.78° C 83% 1010.2 hPa 0 mm 0.89 m/s, 252° 180 W/m² -
1788401858 27.78° C 83% 1010.2 hPa 0 mm 0.45 m/s, 267° 170 W/m² -
1788401797 27.78° C 83% 1010.1 hPa 0 mm 0.45 m/s, 212° 162 W/m² -
1788401737 27.78° C 83% 1010 hPa 0 mm 0.89 m/s, 245° 154 W/m² -
1788401675 27.78° C 83% 1010.1 hPa 0 mm 0.45 m/s, 217° 150 W/m² -
1788401615 27.78° C 82% 1009.8 hPa 0 mm 2.24 m/s, 244° 146 W/m² -
1788401553 27.78° C 82% 1010.2 hPa 0 mm 2.24 m/s, 254° 142 W/m² -
1788401493 27.78° C 82% 1010 hPa 0 mm 1.34 m/s, 276° 137 W/m² -

* Rain latest hour (hover to see other rain measurements)
** Current wind speed in m/s (hover to see current wind gust speed)